National Weather Service Hourly Weather Roundup
NOAA NWS Hourly Roundups by Site
NOAA NWS Hourly Roundups by Site
Regional Weather Roundup for Sacramento, CA

To Select Another Site Choose from List

Select Site:  

000
ASUS46 KSTO 231415
RWRCA

NORTHERN AND CENTRAL CA REGIONAL WEATHER ROUNDUP
NATIONAL WEATHER SERVICE SACRAMENTO CA
700 AM PDT MON SEP 23 2019

NOTE: FAIR INDICATES FEW OR NO CLOUDS BELOW 12,000 FEET WITH NO
SIGNIFICANT WEATHER AND/OR OBSTRUCTIONS TO VISIBILITY.

CAZ001-003-231500-
NORTHWEST AREA

CITY           SKY/WX    TMP DP  RH WIND       PRES   REMARKS
CRESCENT CITY  CLEAR     56  52  86 N8        30.12R
UKIAH          CLEAR     54  51  90 N3        29.99R
$$

CAZ006-505>513-231500-
BAY AREA

CITY           SKY/WX    TMP DP  RH WIND       PRES   REMARKS
SANTA ROSA     CLEAR     50  50 100 CALM      29.94R
SAN RAFAEL     N/A       MM  MM  MM MISG
NAPA           CLOUDY    56  56 100 CALM      29.94R
CONCORD        PTCLDY    61  56  83 S5        29.94R
OAKLAND CITY   N/A       60  MM  MM MISG
OAKLAND        CLOUDY    61  58  90 CALM      29.95R
SAN FRAN CITY  N/A       57  MM  98 MISG
SAN FRAN ARPT  PTCLDY    58  56  93 NW5       29.94R
LIVERMORE      CLOUDY    58  56  93 E3        29.94R
HAYWARD        CLOUDY    61  58  90 CALM      29.94R
REDWOOD CITY   N/A       58  MM  86 MISG
MOFFETT ARPT     N/A    N/A N/A N/A MISG      29.95R
SAN JOSE ARPT  CLOUDY    62  59  90 CALM      29.94R
$$
CAZ034-037-514>518-231500-
CENTRAL COAST

CITY           SKY/WX    TMP DP  RH WIND       PRES   REMARKS
WATSONVILLE    FOG       57  55  93 CALM      29.95R VSB 1/2
SALINAS        CLOUDY    57  55  93 N5        29.94R
MONTEREY       CLOUDY    58  54  86 W5        29.95S
SAN LUIS OBISP FOG       54  53  97 CALM      29.94R VSB 1/4
SANTA MARIA    FOG       55  53  93 W6        29.94R VSB<1/4
$$
CAZ015-016-231500-
NORTHERN SACRAMENTO VALLEY

CITY           SKY/WX    TMP DP  RH WIND       PRES   REMARKS
REDDING        CLEAR     67  46  47 N10       29.99R
RED BLUFF      CLEAR     67  46  47 NW10      29.98R
OROVILLE       CLEAR     60  51  72 NW5       29.94R
$$
CAZ016>018-231500-
SOUTHERN SACRAMENTO VALLEY

CITY           SKY/WX    TMP DP  RH WIND       PRES   REMARKS
AUBURN         CLEAR     57  46  67 CALM      29.95R
BEALE AFB      CLEAR     57  51  82 NW6       29.91R
LINCOLN        FAIR      54  50  87 N5        29.91R
MARYSVILLE     CLEAR     59  53  80 NW8       29.93R
SAC INTL ARPT  CLEAR     56  52  86 NW7       29.91R
MATHER AIRPORT CLEAR     55  52  88 E6        29.89R
DOWNTOWN SAC   N/A       58  MM  MM MISG
SAC EXEC ARPT  CLEAR     58  53  84 N7        29.91R
VACAVILLE      CLEAR     69  49  48 N10       29.93R
TRAVIS AFB     CLEAR     57  54  90 CALM      29.93R
$$
CAZ019>021-231500-
SAN JOAQUIN VALLEY

CITY           SKY/WX    TMP DP  RH WIND       PRES   REMARKS
STOCKTON       CLEAR     62  53  72 NW7       29.90R
MODESTO        CLEAR     63  55  75 NW6       29.89R
MERCED         CLEAR     60  53  77 NW6       29.89R
LEMOORE        PTCLDY    60  45  57 NW9       29.90R
FRESNO         PTCLDY    64  51  62 NW12      29.90R
HANFORD        CLEAR     63  51  65 NW10      29.90R
PORTERVILLE      N/A    N/A N/A N/A MISG        N/A
BAKERSFIELD    CLEAR     65  46  50 SE6       29.90R
$$
CAZ011-012-071-231500-
NORTHERN MOUNTAINS

CITY           SKY/WX    TMP DP  RH WIND       PRES   REMARKS
YREKA          CLEAR     46  43  89 NE6       30.18R
MOUNT SHASTA   CLEAR     47  43  86 CALM      30.15R
ALTURAS        CLOUDY    40  40 100 NW3       30.18R FOG
$$
CAZ011-012-071-231500-
SIERRA NEVADA MTNS

CITY           SKY/WX    TMP DP  RH WIND       PRES   REMARKS
BLUE CANYON    CLEAR     52  38  58 NE3       30.10R
TRUCKEE        PTCLDY    32  32 100 CALM      30.16R
TAHOE VLY ARPT CLEAR     35  31  85 SW3       30.14R
MAMMOTH LAKES  FAIR      39  25  58 CALM      30.18R
$$


 

View Past Reports for Sacramento, CA.

Products Courtesy of NOAA-NWS
NWS Information Parsing Script by Ken True at Saratoga Weather - Script by SE Lincoln Weather.

powered by Cumulus v1.9.3 (1059)
Ambient Weather VWS v14.00
Top Contact Website Map Copyright © 2007 - 2019 Foresthillweather.com Never base important decisions on this or any weather information obtained from the Internet